Regional Weather Roundup
Issued by NWS

Home | Current Version | Previous Version | Graphics & Text | Print | Product List | Glossary On
Versions: 1 2 3 4 5 6 7 8 9 10 11 12 13 14 15 16 17 18 19 20 21 22 23 24 25 26 27 28
000
ASUS45 KCYS 221410
RWRWY

WYOMING REGIONAL WEATHER ROUNDUP
NATIONAL WEATHER SERVICE CHEYENNE WY
800 AM MDT TUE APR 22 2014

NOTE:  "FAIR" INDICATES FEW OR NO CLOUDS BELOW 12,000 FEET
WITH NO SIGNIFICANT WEATHER AND/OR OBSTRUCTIONS TO VISIBILITY.

WYZ001-221500-
YELLOWSTONE NATIONAL PARK

CITY           SKY/WX    TMP DP  RH WIND       PRES   REMARKS
LK YELLOWSTONE   N/A     33  32  96 CALM      29.99F
W YELLOWSTONE  NOT AVBL

$$
WYZ002>013-054>058-071-098>099-221500-
NORTHERN WYOMING

CITY           SKY/WX    TMP DP  RH WIND       PRES   REMARKS
JACKSON        CLOUDY    39  39 100 N7        29.94F WCI  34
CODY           CLOUDY    54  36  50 W3        29.84R
GREYBULL       CLOUDY    47  36  65 S3        29.81F
WORLAND        CLOUDY    45  33  63 CALM      29.83S
SHERIDAN         N/A     39  30  70 CALM        N/A
BUFFALO        CLOUDY    50  31  48 E3        29.84F
GILLETTE       CLOUDY    49  35  58 VRB3      29.86F
HULETT         FAIR      52  34  50 MISG      29.87
NEWCASTLE      FAIR      54  30  40 SE7       29.90

$$
WYZ014>020-022>026-101>103-221500-
CENTRAL WYOMING

CITY           SKY/WX    TMP DP  RH WIND       PRES   REMARKS
BIG PINEY      CLOUDY    45  33  63 MISG      29.95F
PINEDALE       CLOUDY    43  32  65 NE6       29.97S
DUBOIS         FAIR      43  28  56 N18G25    29.91F
LANDER         PTSUNNY   44  27  51 SE3       29.86S
RIVERTON       PTSUNNY   47  25  42 W7        29.87F
CASPER         CLOUDY    45  34  65 N8        29.88F
DOUGLAS        CLOUDY    45  37  73 SE7       29.91F

$$
WYZ021-027>030-104>119-221500-
SOUTHERN WYOMING

CITY           SKY/WX    TMP DP  RH WIND       PRES   REMARKS
EVANSTON         N/A     54  30  40 SW15      29.91F
KEMMERER       CLOUDY    46  32  57 CALM      29.95F
FORT BRIDGER   FAIR      53  31  43 CALM      29.96F
ROCK SPRINGS   CLOUDY    56  28  34 S15       29.94S
DIXON          FAIR      47  36  65 N3        30.02F
RAWLINS        PTSUNNY   53  27  36 VRB3      29.97F
SARATOGA       FAIR      50  28  43 S9        30.01S
LARAMIE        CLOUDY    48  28  46 S12       30.04S
CHEYENNE       CLOUDY    47  36  65 SW3       30.01F
TORRINGTON     CLOUDY    47  34  60 E8        29.94S
PINE BLUFFS    FAIR      50  39  66 S13       30.00F

$$



USA.gov is the U.S. government's official web portal to all federal, state and local government web resources and services.